Theta_e
302 302 301 299 298 297 296 296 296 297 297 297 297 297 297 297 298 298 298 298 298 299 299 298 298 298 298 300 300 301 301 301 298 301 305 305 304 303 304 305 303 303 302
298 299 297 295 294 294 294 294 294 293 294 294 294 294 294 293 293 294 294 294 294 294 294 294 293 293 294 294 294 293 294 295 295 294 297 298 299 300 300 299 299 299 300
294 293 292 292 291 290 291 291 291 291 291 290 291 291 291 291 291 292 291 291 291 290 290 289 290 290 290 290 290 291 292 292 293 293 293 296 297 298 298 298 296 297 298
290 289 289 288 288 287 288 288 288 288 289 289 288 288 289 290 289 289 289 289 288 289 289 288 288 288 288 288 289 290 290 290 290 290 291 292 293 295 296 293 291 293 292
287 286 285 285 285 286 285 285 285 286 285 286 285 285 286 287 288 288 287 287 286 286 287 287 287 285 285 286 287 288 288 288 288 288 288 289 289 290 289 290 289 290 291
285 284 284 284 284 284 284 284 284 283 284 284 283 283 283 285 287 287 286 285 285 284 284 285 286 285 285 285 286 286 287 286 285 285 286 285 286 287 288 287 285 284 283
284 283 283 283 282 282 283 283 282 282 283 282 282 282 282 284 285 286 285 284 284 284 284 284 284 285 285 285 286 286 286 286 286 285 283 284 284 285 284 283 283 282 282
282 282 282 282 281 281 281 281 281 281 281 281 281 281 281 282 284 285 284 285 284 284 284 284 283 283 284 284 284 284 284 285 285 285 285 284 285 285 285 284 284 284 284
280 280 280 281 280 280 280 280 280 280 280 280 280 280 280 281 283 284 284 284 283 283 283 284 283 283 283 284 284 283 283 283 285 286 286 287 287 287 286 285 283 282 279
280 279 280 280 280 279 279 279 279 279 278 279 278 280 279 280 282 284 283 283 282 282 282 282 282 282 283 284 283 282 280 281 283 284 284 284 284 284 284 283 283 279 279
279 278 278 278 278 279 278 278 278 278 278 278 278 278 279 279 281 282 282 282 281 281 281 281 281 282 283 283 283 281 280 282 282 281 281 282 281 282 282 283 282 281 278
278 277 277 277 278 278 278 277 277 278 278 277 278 278 279 279 279 280 281 281 281 280 279 280 281 282 282 281 280 280 280 279 279 278 278 278 278 279 280 281 281 281 281
276 275 275 276 277 277 278 277 278 276 277 277 278 278 278 278 279 279 279 280 280 279 279 280 280 279 278 277 277 277 276 276 276 275 274 275 276 277 278 279 280 280 280
276 275 275 276 275 275 276 277 277 277 277 277 278 278 278 278 278 279 279 280 279 279 279 277 276 275 275 275 275 275 275 274 273 273 273 273 274 275 275 277 277 277 277
276 275 276 276 276 275 275 276 275 276 277 278 278 278 277 277 277 278 278 278 279 278 275 273 272 272 272 272 272 272 272 272 272 272 270 271 271 271 272 274 274 275 274
275 275 276 275 275 275 275 274 274 275 276 277 277 277 277 276 276 276 277 277 276 274 271 270 269 270 269 269 269 269 270 269 270 269 269 269 269 269 269 271 273 273 273
277 275 275 273 274 274 273 274 275 272 273 274 275 274 274 274 274 275 276 274 272 271 268 268 268 268 268 268 268 268 267 268 268 268 268 268 268 267 267 268 269 270 270
274 272 275 275 274 274 273 273 272 273 272 272 270 271 272 272 273 274 272 270 268 268 267 266 266 266 266 266 266 266 266 266 266 266 266 266 266 266 266 266 267 267 267
274 274 274 274 273 272 272 271 270 269 269 269 268 269 268 269 271 270 268 266 265 265 265 265 265 265 265 265 265 265 265 265 265 264 265 265 265 265 264 265 265 265 265
272 271 271 272 271 270 270 269 269 268 268 267 267 267 267 267 267 266 266 265 264 264 264 264 264 264 264 264 264 264 264 264 264 264 264 264 264 264 263 263 264 263 264
273 271 269 270 270 269 269 269 269 268 267 266 266 265 269 266 265 264 264 264 263 263 263 263 263 264 264 264 263 263 263 263 263 263 263 263 263 262 263 263 263 263 263
272 270 268 269 268 267 267 267 266 266 265 265 265 264 265 263 263 263 263 263 263 263 263 263 263 263 263 263 263 262 262 262 262 262 262 262 261 262 261 262 262 262 263
270 268 267 266 267 264 264 264 264 265 264 264 263 263 263 262 261 261 261 261 261 261 262 262 262 262 263 263 263 263 262 261 262 262 261 260 260 260 261 261 261 261 262
268 267 267 266 265 265 265 264 264 263 263 263 262 262 261 261 260 260 260 260 260 261 261 261 261 261 261 261 262 262 262 262 262 261 261 260 259 260 260 260 261 261 262
267 266 266 265 264 264 264 264 263 263 262 262 261 260 260 259 259 259 259 259 258 258 259 259 260 260 260 259 259 260 260 259 259 259 259 259 259 260 260 261 261 262 263
265 265 265 264 264 264 264 263 263 262 261 260 260 259 258 258 258 258 258 257 257 257 257 258 259 259 259 259 260 260 260 262 262 262 262 263 263 263 263 263 262 263 263
Wind_Speed
7 9 12 10 9 6 10 8 7 6 6 5 6 6 5 4 6 7 7 8 8 6 7 6 5 6 5 5 5 5 5 5 8 8 5 7 9 10 11 11 10 10 9
10 9 9 10 10 7 9 9 8 6 6 6 7 7 6 7 8 7 6 6 6 6 7 6 7 6 6 5 5 6 6 6 7 13 9 7 9 10 11 12 10 9 10
10 13 9 12 9 12 8 11 7 6 6 7 8 7 6 6 7 7 6 6 6 6 6 5 6 6 6 6 6 6 6 6 7 8 10 7 9 8 10 10 10 12 9
10 12 11 10 9 8 9 9 8 8 6 6 8 7 7 7 7 6 6 5 5 5 5 5 5 6 7 8 7 7 7 8 8 8 9 9 9 9 8 9 10 9 10
10 12 10 9 8 8 8 9 8 8 6 5 7 7 6 7 6 7 6 6 7 7 6 7 7 6 7 8 6 8 9 8 8 9 10 9 9 8 9 8 10 10 11
10 9 9 9 8 8 8 7 7 5 6 7 7 6 7 5 10 11 9 6 6 6 6 7 6 5 8 8 8 10 10 10 10 9 9 10 12 11 9 10 12 12 9
10 10 9 8 8 8 6 6 7 6 6 6 6 6 7 7 10 9 8 4 3 4 5 5 5 4 6 9 11 11 9 9 9 10 12 11 14 13 13 14 13 13 12
9 9 8 7 8 7 6 6 5 4 5 5 5 6 5 5 8 8 6 5 4 5 6 6 7 7 7 10 11 11 11 10 9 8 11 11 10 11 10 10 13 14 12
9 8 6 6 7 7 6 5 4 4 5 5 4 5 5 6 8 8 7 5 6 6 6 6 7 8 12 17 13 13 14 12 10 15 17 20 20 22 18 10 10 11 13
7 7 6 6 6 6 6 6 3 5 5 3 5 6 6 6 10 11 11 5 7 6 6 7 7 8 16 18 13 12 12 12 13 14 13 14 15 13 16 11 9 10 11
7 7 6 5 6 6 5 4 4 5 5 5 6 6 7 7 6 8 9 4 5 6 6 6 6 13 17 17 17 11 12 15 14 10 10 9 10 11 8 9 10 10 11
7 7 6 5 4 4 6 5 5 5 6 6 5 3 1 1 3 4 7 7 8 6 7 7 9 19 19 18 14 17 18 15 8 8 8 8 9 9 9 10 13 12 10
6 6 7 6 6 4 5 6 5 4 2 2 2 2 2 1 1 4 5 8 8 7 6 11 15 17 18 13 15 16 13 8 8 9 9 9 9 10 12 11 11 12 12
7 7 7 6 5 6 4 3 3 3 3 2 3 1 1 0 3 4 5 5 7 8 10 8 11 11 10 10 8 9 8 8 9 9 9 10 10 9 10 10 11 10 10
6 5 5 4 3 4 2 3 3 3 3 2 1 2 3 2 3 8 9 8 7 8 9 6 6 6 6 6 6 6 7 8 8 8 10 10 10 10 10 10 10 11 11
5 4 4 4 4 4 4 4 3 3 3 3 2 2 0 3 8 10 10 9 10 11 3 5 5 6 6 7 8 8 8 8 8 10 10 10 10 10 11 11 10 11 12
6 6 5 5 5 5 4 4 4 2 2 2 3 3 3 6 8 9 8 10 8 7 3 4 5 6 7 8 8 8 9 9 10 9 10 10 10 10 13 11 11 11 12
6 5 6 6 5 5 5 5 3 3 4 3 2 3 3 7 8 5 9 8 4 4 4 5 6 6 7 8 8 8 9 9 9 9 10 9 9 10 11 11 11 12 12
8 6 6 5 5 5 5 4 4 4 3 2 0 1 3 6 5 5 6 3 4 5 5 5 6 7 8 8 8 8 9 9 9 9 9 9 9 10 11 10 11 14 15
7 6 8 6 6 6 5 5 4 4 4 3 2 1 2 1 2 2 2 2 3 4 5 6 6 7 7 8 8 9 9 9 9 9 9 9 9 9 11 12 11 12 12
7 6 6 5 5 5 4 3 2 2 2 2 1 0 5 1 3 3 3 3 3 4 5 6 7 7 7 8 8 9 9 10 9 9 9 9 9 10 10 10 11 12 12
6 6 6 6 5 5 4 4 4 4 3 2 1 1 4 2 3 3 4 5 5 6 6 7 7 7 7 8 8 9 9 10 10 9 10 10 10 10 10 11 11 11 11
7 8 7 6 6 7 6 5 5 4 3 2 1 1 2 2 3 4 5 5 6 6 6 6 7 7 8 8 8 9 9 10 10 9 10 10 10 10 10 12 12 12 11
7 7 7 7 7 6 6 5 4 4 4 3 3 2 2 2 3 4 5 5 6 6 7 7 7 10 10 9 9 9 9 10 9 10 14 11 11 12 11 12 12 14 13
7 7 7 7 7 6 6 5 5 4 3 2 1 1 2 3 4 4 5 5 5 7 8 8 7 11 12 14 15 17 16 18 14 14 10 13 14 16 14 13 14 12 15
7 7 7 7 7 6 6 5 4 3 3 2 1 1 2 3 4 5 5 6 6 6 9 8 10 15 16 13 15 17 18 19 16 17 13 12 13 12 11 14 17 13 15
Wind_Direction
85 108 109 89 87 68 106 110 76 88 105 113 98 88 72 66 53 53 46 32 35 20 25 13 11 3 358 347 337 330 318 315 290 306 311 301 301 307 308 310 312 309 301
106 106 97 102 104 115 79 96 116 121 91 97 88 80 61 46 49 52 48 38 37 31 23 14 16 358 357 351 332 328 317 309 292 297 301 300 303 305 302 308 313 307 305
113 110 106 105 109 95 114 91 94 84 84 72 79 76 76 63 57 46 48 35 35 28 18 17 8 356 351 338 325 318 314 309 306 295 296 310 301 305 306 299 300 304 303
104 101 96 81 85 88 76 84 79 77 67 70 72 67 64 64 48 42 35 32 27 24 15 16 12 4 352 338 329 323 320 318 314 300 303 305 309 316 307 303 310 310 305
108 107 101 100 88 91 86 93 72 77 87 76 78 67 67 57 37 29 27 20 15 10 10 8 13 8 350 349 335 336 327 321 314 312 309 312 314 321 318 322 308 315 305
103 104 99 107 115 81 96 84 100 103 81 71 60 63 66 54 35 33 19 17 14 16 7 358 356 355 350 345 334 324 323 318 312 312 310 307 315 323 323 327 318 319 323
111 114 108 102 100 89 103 98 77 72 85 79 72 63 61 49 32 27 21 20 19 25 15 357 354 350 336 347 342 334 322 301 295 305 310 311 316 322 318 315 314 310 299
99 103 102 110 103 99 98 92 98 103 89 85 74 69 81 56 37 27 16 13 26 24 13 5 356 345 351 336 332 330 321 320 316 311 305 296 286 284 281 288 292 292 288
112 106 137 131 125 119 115 121 139 124 94 84 79 77 75 68 32 26 26 15 14 10 6 353 340 343 342 336 334 324 321 316 316 304 300 301 302 303 302 306 295 299 299
140 144 132 113 118 132 147 153 130 98 105 108 91 71 60 53 29 28 23 11 5 347 344 342 339 336 330 331 325 322 319 320 319 319 317 310 311 310 311 305 306 301 302
138 124 113 126 142 152 147 134 131 116 103 75 70 58 50 34 22 23 20 10 353 331 328 330 326 326 329 330 334 327 324 320 320 314 305 311 313 312 312 309 306 302 299
131 127 128 157 168 157 154 131 89 73 67 59 52 58 46 335 339 23 11 4 352 332 327 321 322 332 331 332 330 330 327 327 314 315 313 310 313 313 314 310 305 296 290
135 150 168 175 171 155 100 75 68 57 74 117 183 180 184 211 326 358 349 357 352 332 321 322 336 328 328 330 336 332 333 330 326 322 317 319 322 313 304 296 289 288 289
167 178 185 179 112 74 75 94 147 175 191 197 218 212 47 43 22 355 352 346 346 345 358 336 322 321 319 318 321 329 327 334 323 314 326 319 313 316 313 310 303 300 298
179 167 133 98 111 131 161 182 194 206 223 201 354 330 354 16 5 353 353 348 340 342 330 318 321 324 323 323 320 320 322 326 317 330 317 319 318 320 316 315 310 305 297
164 163 166 161 170 176 174 174 211 253 226 275 277 15 85 12 3 351 335 334 349 335 314 319 320 323 321 325 327 327 326 324 326 323 319 318 319 319 318 313 313 314 304
180 169 170 179 183 183 180 199 190 150 8 37 107 17 27 16 351 333 340 346 344 351 334 328 324 328 327 325 321 319 317 321 322 318 318 318 318 317 319 317 320 315 313
186 175 184 184 189 187 191 190 178 186 198 185 73 6 54 0 342 359 348 340 342 346 333 330 325 321 314 310 311 312 313 314 312 312 309 309 310 308 308 310 312 314 313
191 195 191 186 189 187 180 178 175 180 195 178 142 39 11 342 319 358 3 354 327 319 321 315 311 308 309 309 308 306 305 302 307 302 304 305 305 304 301 303 303 306 308
200 190 187 186 177 184 184 184 179 182 177 175 171 210 324 287 297 307 298 295 300 304 310 308 306 302 301 302 304 306 304 304 304 304 304 302 300 301 302 304 303 305 303
192 185 186 183 185 183 177 187 177 162 161 170 175 250 283 331 294 302 319 316 309 307 304 301 301 300 303 306 306 307 303 301 301 299 298 296 298 296 297 297 296 295 298
183 177 176 182 163 164 163 159 165 174 175 181 170 269 335 308 321 325 319 318 317 309 303 300 301 305 308 304 305 301 297 295 295 294 295 296 296 296 296 293 292 294 295
174 168 165 161 161 147 157 164 169 173 171 170 170 248 275 303 313 313 312 310 308 305 303 302 305 299 297 292 291 289 287 286 288 291 291 291 290 289 289 290 291 289 289
163 163 161 157 161 164 164 164 162 165 168 179 194 215 257 285 292 294 292 297 303 302 305 301 291 287 289 288 289 286 282 281 284 285 288 287 287 286 283 282 285 285 285
158 155 159 155 154 156 151 156 164 167 176 182 216 282 310 307 306 303 304 302 299 301 297 294 287 289 289 288 285 285 281 282 277 278 277 270 271 276 278 276 276 276 286
147 146 147 146 149 152 155 157 157 166 170 169 198 267 289 296 296 297 297 296 297 294 296 291 290 292 292 291 289 289 288 286 287 279 267 267 275 277 281 285 284 283 284